Regional Weather Roundup
Issued by NWS

Home | Current Version | Previous Version | Text Only | Print | Product List | Glossary Off
Versions: 1 2 3 4 5 6 7 8 9 10 11 12 13 14 15 16 17 18 19 20 21 22 23 24 25 26 27 28 29 30 31 32 33 34 35 36 37 38 39 40 41 42 43 44 45 46 47 48 49 50

000
ASUS43 KTOP 020308
RWRKS

WEATHER ROUNDUP FOR KANSAS
NATIONAL WEATHER SERVICE GOODLAND KS
1000 PM CDT WED APR 01 2015

NOTE:  "FAIR" INDICATES FEW OR NO CLOUDS BELOW 12,000 FEET WITH NO
SIGNIFICANT WEATHER AND/OR OBSTRUCTIONS TO VISIBILITY.

KSZ001>006-013>018-027>032-041>047-020400-
NORTHWEST KANSAS

CITY           SKY/WX    TMP DP  RH WIND       PRES   REMARKS
GOODLAND       MOCLDY    57  42  57 N25G31    29.72R
HAYS           PTCLDY    70  46  43 S13       29.53R
HILL CITY      CLOUDY    68  37  32 N37G47    29.59R
RUSSELL        PTCLDY    76  52  43 S25G35    29.50R
$$

KSZ061>065-074>080-084>089-020400-
SOUTHWEST KANSAS

CITY           SKY/WX    TMP DP  RH WIND       PRES   REMARKS
DODGE CITY     PTCLDY    67  37  33 SE20      29.57R
ELKHART          N/A     69  26  20 W9          N/A
GARDEN CITY    PTCLDY    64  33  31 S3        29.55R
GREAT BEND     PTCLDY    73  52  46 S29G37    29.54R
LIBERAL        MOCLDY    72  30  21 S14       29.61R
PRATT          PTCLDY    72  55  56 S23G32    29.61R
$$

KSZ066>073-081>083-090>101-020400-
SOUTHEAST KANSAS

CITY           SKY/WX    TMP DP  RH WIND       PRES   REMARKS
CHANUTE        CLEAR     68  57  68 S15       29.73R
COFFEYVILLE    CLEAR     68  58  70 S13       29.75R
HUTCHINSON     CLOUDY    74  57  55 S28G38    29.60R
MEDICINE LODGE   N/A     72  62  71 S17G28    29.61R
NEWTON         MOCLDY    73  54  49 S25G32    29.66R
PARSONS        CLEAR     69  59  70 S13G21    29.75R
WICHITA INTL   MOCLDY    74  59  59 S25G35    29.63S
WICHITA JABRA  PTCLDY    73  57  57 S23G29    29.65R
WICHITA MCCONL MOCLDY    74  59  59 SE22G33   29.65S
WINFIELD       PTCLDY    71  59  65 S21       29.70R
$$

KSZ007>012-019>026-033>040-048>060-102>105-020400-
NORTHEAST KANSAS

CITY           SKY/WX    TMP DP  RH WIND       PRES   REMARKS
CONCORDIA      MOCLDY    75  54  47 S24G35    29.52S
EMPORIA        CLEAR     69  55  60 S15       29.66R
LAWRENCE       CLEAR     61  56  83 SE15      29.67F
MANHATTAN      PTCLDY    72  59  63 S17       29.58F
MARYSVILLE     PTCLDY    70  57  64 S18G29    29.56F
OLATHE IND     MOCLDY    60  58  92 SE16      29.70F
OLATHE EXE     CLOUDY    61  59  93 SE15G24   29.69F
SALINA         PTCLDY    76  55  48 S25G35    29.54F
TOPEKA BILLARD CLEAR     64  58  80 SE14      29.65F
TOPEKA FORBES  CLEAR     64  58  80 SE16      29.64F
$$


USA.gov is the U.S. government's official web portal to all federal, state and local government web resources and services.